| time (UTC) | temp F | wind direction | speed MPH | gust MPH | rain 1hr in | rain 24hr in | rain mn in | humidity % | barometer mb |
| 20260506153036 | 65 | 308 | 6.0 | 17.0 | 0.00 | 0.00 | 0.00 | 66 | 1018.7 |
| 20260506151610 | 63 | 310 | 6.0 | 19.0 | 0.00 | 0.00 | 0.00 | 69 | 1018.8 |
| 20260506143032 | 56 | 38 | 1.0 | 9.0 | 0.00 | 0.00 | 0.00 | 83 | 1018.9 |
| 20260506140043 | 54 | 90 | 0.0 | 0.0 | 0.00 | 0.00 | 0.00 | 82 | 1018.7 |
| 20260506134605 | 54 | 89 | 0.0 | 1.0 | 0.00 | 0.00 | 0.00 | 79 | 1018.5 |
| 20260506130034 | 56 | 288 | 3.0 | 13.0 | 0.00 | 0.00 | 0.00 | 80 | 1018.1 |
| 20260506124538 | 53 | 310 | 3.0 | 10.0 | 0.00 | 0.00 | 0.00 | 83 | 1018.0 |
| 20260506123031 | 54 | 53 | 0.0 | 4.0 | 0.00 | 0.00 | 0.00 | 84 | 1017.9 |
| 20260506121536 | 53 | 337 | 2.0 | 5.0 | 0.00 | 0.00 | 0.00 | 86 | 1017.7 |
| 20260506114606 | 50 | 310 | 1.0 | 7.0 | 0.00 | 0.00 | 0.00 | 87 | 1017.6 |
| 20260506113143 | 51 | 131 | 0.0 | 3.0 | 0.00 | 0.00 | 0.00 | 86 | 1017.4 |
| 20260506111606 | 52 | 108 | 0.0 | 3.0 | 0.00 | 0.00 | 0.00 | 86 | 1017.4 |
| 20260506110035 | 52 | 24 | 0.0 | 3.0 | 0.00 | 0.00 | 0.00 | 86 | 1017.3 |
| 20260506104536 | 52 | 109 | 0.0 | 1.0 | 0.00 | 0.00 | 0.00 | 86 | 1017.1 |
| 20260506103037 | 52 | 100 | 0.0 | 3.0 | 0.00 | 0.00 | 0.00 | 85 | 1017.0 |
| 20260506101549 | 52 | 101 | 0.0 | 3.0 | 0.00 | 0.00 | 0.00 | 85 | 1016.9 |
| 20260506101539 | 53 | 189 | 0.0 | 5.0 | 0.00 | 0.00 | 0.00 | 84 | 1016.9 |
| 20260506100057 | 53 | 93 | 0.0 | 2.0 | 0.00 | 0.00 | 0.00 | 82 | 1016.9 |
| 20260506093034 | 54 | 123 | 0.0 | 3.0 | 0.00 | 0.00 | 0.00 | 80 | 1016.8 |
| 20260506091605 | 55 | 111 | 0.0 | 4.0 | 0.00 | 0.00 | 0.00 | 77 | 1016.8 |
| 20260506090036 | 57 | 327 | 0.0 | 4.0 | 0.00 | 0.00 | 0.00 | 76 | 1016.7 |
| 20260506084535 | 58 | 323 | 2.0 | 5.0 | 0.00 | 0.00 | 0.00 | 75 | 1016.6 |
| 20260506083110 | 59 | 341 | 3.0 | 10.0 | 0.00 | 0.00 | 0.00 | 74 | 1016.5 |
| 20260506081530 | 59 | 324 | 2.0 | 6.0 | 0.00 | 0.00 | 0.00 | 74 | 1016.4 |
| 20260506080148 | 59 | 340 | 4.0 | 9.0 | 0.00 | 0.00 | 0.00 | 75 | 1016.3 |
| 20260506073032 | 58 | 349 | 0.0 | 4.0 | 0.00 | 0.00 | 0.00 | 79 | 1016.0 |
| 20260506071532 | 56 | 360 | 0.0 | 5.0 | 0.00 | 0.00 | 0.00 | 82 | 1015.9 |
| 20260506044533 | 59 | 86 | 0.0 | 4.0 | 0.00 | 0.00 | 0.00 | 73 | 1014.6 |
| 20260506043031 | 60 | 96 | 0.0 | 5.0 | 0.00 | 0.00 | 0.00 | 72 | 1014.4 |
| 20260506041535 | 60 | 89 | 0.0 | 7.0 | 0.00 | 0.00 | 0.00 | 70 | 1014.3 |
| 20260506040043 | 61 | 96 | 0.0 | 5.0 | 0.00 | 0.00 | 0.00 | 67 | 1014.0 |
| 20260506034534 | 63 | 97 | 0.0 | 4.0 | 0.00 | 0.00 | 0.00 | 64 | 1013.7 |
| 20260506033106 | 65 | 113 | 0.0 | 8.0 | 0.00 | 0.00 | 0.00 | 61 | 1013.4 |
| 20260506031535 | 67 | 30 | 2.0 | 8.0 | 0.00 | 0.00 | 0.00 | 59 | 1013.2 |
| 20260506030036 | 69 | 89 | 0.0 | 3.0 | 0.00 | 0.00 | 0.00 | 56 | 1012.9 |
| 20260506024533 | 70 | 2 | 3.0 | 6.0 | 0.00 | 0.00 | 0.00 | 54 | 1012.7 |
| 20260506023106 | 70 | 358 | 2.0 | 7.0 | 0.00 | 0.00 | 0.00 | 53 | 1012.8 |
| 20260506021532 | 72 | 332 | 4.0 | 9.0 | 0.00 | 0.00 | 0.00 | 52 | 1012.8 |
| 20260506020035 | 73 | 358 | 3.0 | 9.0 | 0.00 | 0.00 | 0.00 | 51 | 1012.7 |
| 20260506014535 | 73 | 287 | 4.0 | 10.0 | 0.00 | 0.00 | 0.00 | 50 | 1012.7 |
| 20260506013107 | 75 | 267 | 3.0 | 10.0 | 0.00 | 0.00 | 0.00 | 49 | 1012.6 |
| 20260506011535 | 75 | 15 | 3.0 | 9.0 | 0.00 | 0.00 | 0.00 | 48 | 1012.5 |
| 20260506004607 | 76 | 359 | 4.0 | 8.0 | 0.00 | 0.00 | 0.00 | 46 | 1012.5 |
| 20260506003036 | 80 | 299 | 3.0 | 7.0 | 0.00 | 0.00 | 0.00 | 41 | 1012.4 |
| 20260506000035 | 81 | 295 | 4.0 | 12.0 | 0.00 | 0.00 | 0.00 | 41 | 1012.4 |
| 20260505234652 | 81 | 311 | 5.0 | 10.0 | 0.00 | 0.00 | 0.00 | 40 | 1012.5 |
| 20260505233032 | 82 | 309 | 5.0 | 11.0 | 0.00 | 0.00 | 0.00 | 40 | 1012.6 |
| 20260505231536 | 82 | 317 | 5.0 | 10.0 | 0.00 | 0.00 | 0.00 | 41 | 1012.7 |
| 20260505230031 | 82 | 305 | 5.0 | 13.0 | 0.00 | 0.00 | 0.00 | 40 | 1012.8 |
| 20260505224644 | 82 | 306 | 5.0 | 11.0 | 0.00 | 0.00 | 0.00 | 40 | 1012.8 |
| 20260505223030 | 82 | 316 | 5.0 | 12.0 | 0.00 | 0.00 | 0.00 | 41 | 1013.0 |
| 20260505220034 | 80 | 296 | 4.0 | 10.0 | 0.00 | 0.00 | 0.00 | 43 | 1013.2 |
| 20260505213034 | 78 | 335 | 6.0 | 11.0 | 0.00 | 0.00 | 0.00 | 44 | 1013.5 |
| 20260505211534 | 77 | 329 | 6.0 | 12.0 | 0.00 | 0.00 | 0.00 | 45 | 1013.6 |
| 20260505210036 | 76 | 326 | 6.0 | 11.0 | 0.00 | 0.00 | 0.00 | 46 | 1013.7 |
| 20260505204531 | 76 | 318 | 5.0 | 14.0 | 0.00 | 0.00 | 0.00 | 47 | 1013.9 |
| 20260505201531 | 75 | 292 | 5.0 | 10.0 | 0.00 | 0.00 | 0.00 | 49 | 1014.1 |
| 20260505200038 | 74 | 298 | 4.0 | 11.0 | 0.00 | 0.00 | 0.00 | 49 | 1014.2 |
| 20260505194535 | 75 | 296 | 4.0 | 11.0 | 0.00 | 0.00 | 0.00 | 48 | 1014.4 |
| 20260505193036 | 76 | 298 | 4.0 | 10.0 | 0.00 | 0.00 | 0.00 | 48 | 1014.5 |
| 20260505191536 | 76 | 297 | 4.0 | 11.0 | 0.00 | 0.00 | 0.00 | 49 | 1014.5 |
| 20260505190036 | 75 | 297 | 4.0 | 11.0 | 0.00 | 0.00 | 0.00 | 50 | 1014.7 |
| 20260505183036 | 74 | 279 | 6.0 | 14.0 | 0.00 | 0.00 | 0.00 | 51 | 1014.8 |
| 20260505181608 | 73 | 267 | 5.0 | 13.0 | 0.00 | 0.00 | 0.00 | 53 | 1014.9 |
| 20260505180036 | 72 | 266 | 5.0 | 13.0 | 0.00 | 0.00 | 0.00 | 54 | 1014.8 |
| 20260505174532 | 71 | 279 | 6.0 | 12.0 | 0.00 | 0.00 | 0.00 | 56 | 1015.0 |
| 20260505173106 | 69 | 273 | 6.0 | 14.0 | 0.00 | 0.00 | 0.00 | 58 | 1014.9 |
| 20260505171536 | 67 | 275 | 6.0 | 13.0 | 0.00 | 0.00 | 0.00 | 61 | 1014.9 |
| 20260505170038 | 66 | 280 | 6.0 | 12.0 | 0.00 | 0.00 | 0.00 | 61 | 1014.9 |
| 20260505163032 | 67 | 299 | 7.0 | 18.0 | 0.00 | 0.00 | 0.00 | 61 | 1014.9 |